• In Uzbekistan
  • List of Countries
  • For 7 days
  • Water Temperature
  • Satellite Maps
  • Weather Map
  • Weather Widgets
  • user-avatar
    Login

    Hourly Weather Huixtla

    Today, 22 April, Sunday

    Time Temperature Precipitation Wind Pressure Humidity
    00:00 +29°C° 0 mm 1 mps 754 mmHg 72%
    01:00 +29°C° 0.2 mm 1 mps 754 mmHg 72%
    02:00 +28°C° 0.2 mm 1 mps 754 mmHg 72%
    03:00 +28°C° 0.2 mm 1 mps 753 mmHg 72%
    04:00 +28°C° 0 mm 1 mps 754 mmHg 72%
    05:00 +28°C° 0 mm 1 mps 754 mmHg 72%
    06:00 +28°C° 0 mm 1 mps 754 mmHg 71%
    07:00 +30°C° 0 mm 1 mps 754 mmHg 64%
    08:00 +32°C° 0 mm 1 mps 754 mmHg 57%
    09:00 +35°C° 0 mm 1 mps 754 mmHg 50%
    10:00 +36°C° 0 mm 2 mps 754 mmHg 48%
    11:00 +37°C° 0 mm 2 mps 753 mmHg 47%
    12:00 +38°C° 0 mm 3 mps 753 mmHg 46%
    13:00 +38°C° 0 mm 3 mps 752 mmHg 46%
    14:00 +38°C° 0 mm 3 mps 752 mmHg 45%
    15:00 +38°C° 0 mm 3 mps 751 mmHg 45%
    16:00 +36°C° 0 mm 3 mps 751 mmHg 51%
    17:00 +35°C° 0 mm 3 mps 751 mmHg 56%
    18:00 +34°C° 0 mm 2 mps 751 mmHg 62%
    19:00 +32°C° 0 mm 2 mps 752 mmHg 66%
    20:00 +31°C° 0 mm 2 mps 753 mmHg 70%
    21:00 +29°C° 0 mm 1 mps 753 mmHg 74%
    22:00 +29°C° 0.1 mm 1 mps 753 mmHg 74%
    23:00 +29°C° 0.1 mm 1 mps 754 mmHg 75%

    Tomorrow, 23 April, Monday

    Time Temperature Precipitation Wind Pressure Humidity
    00:00 +29°C° 0.1 mm 1 mps 754 mmHg 75%
    01:00 +29°C° 0.2 mm 1 mps 754 mmHg 75%
    02:00 +28°C° 0.2 mm 1 mps 753 mmHg 75%
    03:00 +28°C° 0.2 mm 1 mps 753 mmHg 75%
    04:00 +28°C° 0 mm 2 mps 753 mmHg 74%
    05:00 +28°C° 0 mm 2 mps 754 mmHg 72%
    06:00 +28°C° 0 mm 2 mps 754 mmHg 71%
    07:00 +30°C° 0 mm 2 mps 754 mmHg 63%
    08:00 +34°C° 0 mm 2 mps 754 mmHg 56%
    09:00 +36°C° 0 mm 2 mps 754 mmHg 49%
    10:00 +37°C° 0 mm 2 mps 754 mmHg 47%
    11:00 +38°C° 0 mm 2 mps 754 mmHg 45%
    12:00 +39°C° 0 mm 3 mps 753 mmHg 43%
    13:00 +39°C° 0.1 mm 3 mps 753 mmHg 45%
    14:00 +39°C° 0.1 mm 3 mps 752 mmHg 47%
    15:00 +38°C° 0.1 mm 3 mps 751 mmHg 48%
    16:00 +37°C° 0.3 mm 2 mps 751 mmHg 54%
    17:00 +35°C° 0.3 mm 2 mps 752 mmHg 60%
    18:00 +33°C° 0.3 mm 1 mps 752 mmHg 65%
    19:00 +32°C° 0.2 mm 1 mps 753 mmHg 69%
    20:00 +31°C° 0.2 mm 1 mps 753 mmHg 72%
    21:00 +30°C° 0.2 mm 1 mps 754 mmHg 75%
    22:00 +29°C° 0.1 mm 1 mps 754 mmHg 74%
    23:00 +29°C° 0.1 mm 1 mps 754 mmHg 74%

    Day after tomorrow, 24 April, Tuesday

    Time Temperature Precipitation Wind Pressure Humidity
    00:00 +29°C° 0.1 mm 1 mps 754 mmHg 73%
    01:00 +28°C° 0 mm 1 mps 754 mmHg 72%
    02:00 +28°C° 0 mm 1 mps 753 mmHg 70%
    03:00 +28°C° 0 mm 1 mps 753 mmHg 69%
    04:00 +28°C° 0 mm 2 mps 753 mmHg 67%
    05:00 +28°C° 0 mm 2 mps 753 mmHg 65%
    06:00 +28°C° 0 mm 2 mps 753 mmHg 64%
    07:00 +31°C° 0 mm 2 mps 754 mmHg 56%
    08:00 +33°C° 0 mm 1 mps 754 mmHg 49%
    09:00 +36°C° 0 mm 1 mps 754 mmHg 42%
    10:00 +38°C° 0 mm 2 mps 754 mmHg 41%
    11:00 +39°C° 0 mm 2 mps 754 mmHg 41%
    12:00 +39°C° 0 mm 3 mps 754 mmHg 40%
    13:00 +38°C° 0.1 mm 3 mps 753 mmHg 45%
    14:00 +37°C° 0.1 mm 2 mps 752 mmHg 49%
    15:00 +37°C° 0.1 mm 2 mps 751 mmHg 54%
    16:00 +35°C° 0.5 mm 2 mps 752 mmHg 59%
    17:00 +34°C° 0.5 mm 2 mps 752 mmHg 64%
    18:00 +32°C° 0.5 mm 1 mps 752 mmHg 69%
    19:00 +31°C° 0.6 mm 1 mps 753 mmHg 71%
    20:00 +31°C° 0.6 mm 1 mps 754 mmHg 73%
    21:00 +30°C° 0.6 mm 1 mps 755 mmHg 75%
    22:00 +30°C° 0.3 mm 1 mps 755 mmHg 74%
    23:00 +29°C° 0.3 mm 1 mps 755 mmHg 73%

    25 April, Wednesday

    Time Temperature Precipitation Wind Pressure Humidity
    00:00 +29°C° 0.3 mm 1 mps 755 mmHg 72%
    01:00 +29°C° 0.1 mm 1 mps 754 mmHg 71%
    02:00 +28°C° 0.1 mm 1 mps 754 mmHg 70%
    03:00 +28°C° 0.1 mm 1 mps 753 mmHg 68%
    04:00 +28°C° 0 mm 1 mps 753 mmHg 67%
    05:00 +28°C° 0 mm 1 mps 754 mmHg 65%
    06:00 +28°C° 0 mm 1 mps 754 mmHg 64%
    07:00 +30°C° 0.1 mm 1 mps 754 mmHg 59%
    08:00 +32°C° 0.1 mm 1 mps 755 mmHg 53%
    09:00 +35°C° 0.1 mm 1 mps 755 mmHg 48%
    10:00 +36°C° 0 mm 1 mps 754 mmHg 47%
    11:00 +38°C° 0 mm 2 mps 754 mmHg 46%
    12:00 +39°C° 0 mm 2 mps 754 mmHg 45%
    13:00 +38°C° 0.3 mm 2 mps 753 mmHg 48%
    14:00 +38°C° 0.3 mm 2 mps 752 mmHg 50%
    15:00 +37°C° 0.3 mm 3 mps 751 mmHg 53%
    16:00 +36°C° 0.6 mm 2 mps 751 mmHg 59%
    17:00 +35°C° 0.6 mm 2 mps 752 mmHg 64%
    18:00 +32°C° 0.6 mm 1 mps 752 mmHg 70%
    19:00 +31°C° 0.7 mm 1 mps 752 mmHg 72%
    20:00 +30°C° 0.7 mm 1 mps 753 mmHg 75%
    21:00 +30°C° 0.7 mm 1 mps 754 mmHg 78%
    22:00 +29°C° 0.2 mm 1 mps 754 mmHg 77%
    23:00 +29°C° 0.2 mm 1 mps 754 mmHg 77%

    26 April, Thursday

    Time Temperature Precipitation Wind Pressure Humidity
    00:00 +29°C° 0.2 mm 1 mps 754 mmHg 76%
    01:00 +29°C° 0.3 mm 1 mps 753 mmHg 76%
    02:00 +28°C° 0.3 mm 1 mps 753 mmHg 75%
    03:00 +28°C° 0.3 mm 1 mps 752 mmHg 75%
    04:00 +28°C° 0.1 mm 1 mps 753 mmHg 74%
    05:00 +28°C° 0.1 mm 1 mps 753 mmHg 74%
    06:00 +28°C° 0.1 mm 1 mps 754 mmHg 73%
    07:00 +30°C° 0 mm 1 mps 754 mmHg 66%
    08:00 +32°C° 0 mm 1 mps 754 mmHg 60%
    09:00 +34°C° 0 mm 1 mps 754 mmHg 53%
    10:00 +35°C° 0 mm 1 mps 754 mmHg 50%
    11:00 +37°C° 0 mm 2 mps 753 mmHg 47%
    12:00 +38°C° 0 mm 2 mps 753 mmHg 45%
    13:00 +38°C° 0.4 mm 2 mps 752 mmHg 48%
    14:00 +37°C° 0.4 mm 2 mps 751 mmHg 51%
    15:00 +37°C° 0.4 mm 3 mps 751 mmHg 54%
    16:00 +35°C° 0.8 mm 2 mps 751 mmHg 60%
    17:00 +34°C° 0.8 mm 2 mps 751 mmHg 65%
    18:00 +32°C° 0.8 mm 1 mps 752 mmHg 71%
    19:00 +31°C° 1 mm 1 mps 752 mmHg 73%
    20:00 +30°C° 1 mm 1 mps 753 mmHg 76%
    21:00 +29°C° 1 mm 1 mps 754 mmHg 78%
    22:00 +29°C° 0.7 mm 1 mps 754 mmHg 78%
    23:00 +29°C° 0.7 mm 1 mps 754 mmHg 78%

    27 April, Friday

    Time Temperature Precipitation Wind Pressure Humidity
    00:00 +29°C° 0.7 mm 1 mps 754 mmHg 77%
    01:00 +29°C° 0.4 mm 1 mps 753 mmHg 77%
    02:00 +28°C° 0.4 mm 1 mps 753 mmHg 76%
    03:00 +28°C° 0.4 mm 1 mps 752 mmHg 75%
    04:00 +28°C° 0.2 mm 1 mps 752 mmHg 74%
    05:00 +28°C° 0.2 mm 1 mps 753 mmHg 73%
    06:00 +28°C° 0.2 mm 1 mps 753 mmHg 72%
    07:00 +30°C° 0.1 mm 1 mps 753 mmHg 64%
    08:00 +32°C° 0.1 mm 1 mps 754 mmHg 57%
    09:00 +33°C° 0.1 mm 0 mps 754 mmHg 49%
    10:00 +35°C° 0.6 mm 1 mps 753 mmHg 48%
    11:00 +36°C° 0.6 mm 1 mps 753 mmHg 47%
    12:00 +38°C° 0.6 mm 2 mps 752 mmHg 46%
    13:00 +37°C° 0.6 mm 2 mps 752 mmHg 48%
    14:00 +37°C° 0.6 mm 2 mps 751 mmHg 51%
    15:00 +36°C° 0.6 mm 2 mps 750 mmHg 54%
    16:00 +35°C° 1 mm 2 mps 751 mmHg 60%
    17:00 +34°C° 1 mm 2 mps 751 mmHg 66%
    18:00 +32°C° 1 mm 1 mps 751 mmHg 71%
    19:00 +31°C° 1 mm 1 mps 752 mmHg 74%
    20:00 +30°C° 1 mm 1 mps 753 mmHg 76%
    21:00 +29°C° 1 mm 1 mps 753 mmHg 79%
    22:00 +29°C° 0.7 mm 1 mps 753 mmHg 78%
    23:00 +29°C° 0.7 mm 1 mps 753 mmHg 78%
    Show more